Regional Weather Roundup
Issued by NWS

Home | Current Version | Previous Version | Text Only | Print | Product List | Glossary Off
Versions: 1 2 3 4 5 6 7 8 9 10 11 12 13 14 15 16 17 18 19 20 21 22 23 24 25 26 27 28 29 30 31 32 33 34 35 36 37 38 39 40 41 42 43 44 45 46 47 48 49 50

000
ASUS43 KMKX 220400
RWRWI

WISCONSIN REGIONAL WEATHER ROUNDUP
NATIONAL WEATHER SERVICE MILWAUKEE/SULLIVAN WI
1100 PM CDT THU AUG 21 2014

NOTE: "FAIR" INDICATES FEW OR NO CLOUDS BELOW 12,000 FEET WITH NO
SIGNIFICANT WEATHER AND/OR OBSTRUCTIONS TO VISIBILITY.

WIZ001-002-006>008-014>016-023>028-220500-
NORTHWEST WISCONSIN

CITY           SKY/WX    TMP DP  RH WIND       PRES   REMARKS
SUPERIOR ARPT  CLOUDY    61  61  99 E12G21    29.91F FOG
ASHLAND        CLOUDY    65  63  93 NE3       29.91S
HAYWARD        CLOUDY    69  67  93 VRB3      29.89F
SIREN          CLOUDY    71  70  95 NE5       29.87S
RICE LAKE      CLOUDY    71  68  92 E6        29.89S
LADYSMITH      MOCLDY    69  67  94 E9        29.91F FOG
EAU CLAIRE     NOT AVBL
MENOMONIE      MOCLDY    74  72  94 E3        29.86S
NEW RICHMOND   PTCLDY    72  71  98 E6        29.84F
OSCEOLA        CLOUDY    73  73 100 CALM      29.86S
$$

WIZ003>005-009-010-017-018-220500-
NORTH CENTRAL WISCONSIN

CITY           SKY/WX    TMP DP  RH WIND       PRES   REMARKS
WOODRUFF       CLOUDY    67  64  89 SE5       29.96S
RHINELANDER    LGT RAIN  63  63 100 E6        29.97S FOG
EAGLE RIVER    CLOUDY    64  63  96 SE6       29.96F
LAND O LAKES   CLOUDY    65  63  92 CALM      29.98S
PHILLIPS       CLOUDY    66  65  98 SE6       29.92F FOG
TOMAHAWK       CLOUDY    64  63  94 CALM      29.96S FOG
MEDFORD        FOG       66  66  99 E5        29.93S VSB 1
MERRILL        CLOUDY    65  65 100 SE5       29.95S FOG
$$

WIZ029-030-035-036-043>047-220500-
CENTRAL WISCONSIN

CITY           SKY/WX    TMP DP  RH WIND       PRES   REMARKS
WAUSAU         CLOUDY    65  65 100 E8        29.94S FOG
MOSINEE        FOG       64  64 100 E8        29.96R VSB 3/4
MARSHFIELD     CLOUDY    71  69  93 E5        29.92S FOG
STEVENS POINT  CLOUDY    67  65  95 E6        29.94S FOG
WAUPACA        CLOUDY    71  69  93 E6        29.93F FOG
WAUTOMA        NOT AVBL
WISC RAPIDS    CLOUDY    73  70  90 E6        29.93R
CAMP DOUGLAS   CLEAR     70  70 100 SE5       29.91S
$$

WIZ011>013-019>022-031-037>040-048>050-220500-
NORTHEAST WISCONSIN

CITY           SKY/WX    TMP DP  RH WIND       PRES   REMARKS
ANTIGO         CLOUDY    63  62  97 SE8       29.97S
STURGEON BAY   CLOUDY    64  61  88 E6        29.97S
GREEN BAY      MOCLDY    66  64  93 SE5       29.94F
MANITOWOC      CLOUDY    66  64  94 SE3       29.96S FOG
APPLETON       CLOUDY    68  66  94 VRB5      29.94F FOG
CLINTONVILLE   CLOUDY    66  64  94 E3        29.94S
OSHKOSH        PTCLDY    70  69  97 E5        29.93S FOG
$$

WIZ032>034-041-042-053>061-220500-
SOUTHWEST WISCONSIN

CITY           SKY/WX    TMP DP  RH WIND       PRES   REMARKS
LA CROSSE      PTCLDY    77  71  82 SE8       29.87S
SPARTA         CLEAR     70  69  95 CALM      29.90S
VIROQUA        FAIR      71  71 100 SE6       29.92S
BOSCOBEL       PTCLDY    72  70  93 CALM      29.90S FOG
PRAIRIE DU CHI PTCLDY    73  70  92 CALM      29.88F
PLATTEVILLE    FAIR      73  71  96 E5        29.93S
$$

WIZ056-057-062-063-064-067-068-220500-
SOUTH CENTRAL WISCONSIN

CITY           SKY/WX    TMP DP  RH WIND       PRES   REMARKS
BARABOO/DELLS  CLEAR     71  69  92 S3        29.92S FOG
LONE ROCK      NOT AVBL
WATERTOWN      MOCLDY    71  71 100 SE3       29.94R
MADISON        MOCLDY    75  72  90 S5        29.93S
MIDDLETON      CLOUDY    74  74  99 CALM      29.93F
MONROE         PTCLDY    72  72 100 CALM      29.94S FOG
JANESVILLE     CLOUDY    73  72  94 SE3       29.93F FOG
$$

WIZ051-052-058>065-066-070>072-220500-
SOUTHEAST WISCONSIN

CITY           SKY/WX    TMP DP  RH WIND       PRES   REMARKS
MILWAUKEE      CLOUDY    71  68  90 SE7       29.95S FOG
WAUKESHA       MOCLDY    70  68  94 SE5       29.96S FOG
MILWAUKEE/TIMM CLOUDY    70  66  88 CALM      29.96R
RACINE         CLOUDY    72  69  90 SE5       29.97S FOG
BURLINGTON     CLOUDY    70  70  99 E3        29.95S FOG
KENOSHA        FOG       71  71 100 E5        29.96S VSB 1/4
FOND DU LAC    CLEAR     70  68  93 SE5       29.94S
SHEBOYGAN      FOG       67  66  97 E3        29.96S VSB 1/4
WEST BEND      FOG       68  64  88 CALM      29.96S VSB 1/2
JUNEAU         CLOUDY    71  45  39 SE3       29.95S
$$

LSZ147-162-220500-
LAKE SUPERIOR

STATION/POSITION TIME  TEMP    WIND        PRES    WAVE
                       AIR SEA DIR/SP/G            HT/PER
                 (UTC) (F)     (DEG/KT/KT) (MB)    (FT/S)
W MID LAKE BUOY  0250   59 58   60/ 14/ 16 1013.5R   2/ 4
DEVILS ISLAND    0300   61      60/ 15/ 17 1013.0R
PORT WING        0300   62      40/ 13/ 15 1012.9R
SAXON HARBOR     0300   66        CALM     1012.5R
$$

LMZ867-665-643>646-220500-
LAKE MICHIGAN

STATION/POSITION TIME  TEMP    WIND        PRES    WAVE
                       AIR SEA DIR/SP/G            HT/PER
                 (UTC) (F)     (DEG/KT/KT) (MB)    (FT/S)
N MID LAKE BUOY  0250   65 65  100/  6/  8 1014.5R   0
NORTHPORT PIER   0300   66     110/  2/  2 1014.9S
SISTER BAY       0311   66     110/  5/  7   N/A
ALGOMA LAKESHORE 0338             CALM       N/A
KEWAUNEE LAKESHO 0300   65      70/  1/  2 1013.7S
SHEBOYGAN LAKESH 0300   66 66  100/  4/  4 1014.5F
ATWATER BUOY     0300   69     100/  6/  8 1015.2S
MILWAUKEE LAKESH 0300   70     120/  3/  3   N/A
S MID LAKE BUOY  0250   69 68   90/  4/  4 1014.2R   0
KENOSHA   LAKESH 0300   71      70/  2/  4 1013.9R
$$

TC  - TEMPERATURE IN CELSIUS
VSB - VISIBILITY IN STATUTE MILES
WCI - WIND CHILL INDEX
HX  - HEAT INDEX




USA.gov is the U.S. government's official web portal to all federal, state and local government web resources and services.